Dewpoint
4 4 3 1 1 -2 1 4 6 5 5 6 6 5 5 4 7 7 -1 -4 1 2 0 -1 -3 -4 -5 -7 -5 -8 -10 -8 -5 -5 -5 -6 -7 -6 -6 -8 -8 -7 -8 -8 -8 -9 -9
4 4 -5 -7 2 3 3 5 6 6 5 5 4 4 6 5 7 2 -2 2 1 1 1 1 -0 -5 -6 -5 -7 -9 -13 -10 -7 -7 -7 -8 -8 -8 -8 -8 -7 -8 -10 -10 -11 -10 -9
3 2 3 5 5 4 4 5 6 6 5 7 7 6 6 5 0 2 3 2 2 -1 -2 -3 -6 -7 -7 -5 -6 -9 -15 -14 -9 -8 -9 -8 -10 -10 -10 -9 -9 -8 -8 -8 -8 -8 -8
4 3 5 5 5 6 5 5 6 5 6 6 7 6 5 2 3 2 1 -0 -1 -4 -5 -7 -7 -8 -6 -4 -5 -8 -13 -17 -15 -12 -10 -10 -11 -11 -9 -7 -5 -5 -6 -6 -7 -7 -5
3 4 5 5 5 5 5 6 5 5 5 4 4 3 3 1 0 0 -0 -1 -2 -4 -5 -7 -10 -11 -5 -4 -5 -6 -8 -11 -15 -15 -15 -10 -8 -5 -4 -3 -4 -6 -6 -5 -8 -2 -4
3 5 5 3 5 6 6 6 4 3 3 2 3 3 2 1 -0 -1 -3 -4 -5 -5 -8 -9 -8 -9 -4 -2 -2 -2 -4 -5 -6 -6 -6 -5 -7 -3 -2 -5 -11 -10 -4 -2 -3 -2 0
2 3 4 3 3 5 4 4 5 3 0 0 0 0 1 -1 -3 -4 -6 -7 -8 -6 -4 -1 -1 -1 -2 -2 -2 -2 -4 -4 -6 -6 -2 -3 -2 -1 -0 -2 -5 -1 1 2 0 -0 2
1 1 3 3 2 1 -1 -1 -1 -0 -1 -1 -1 -2 -2 -3 -6 -5 -6 -7 -3 -2 -1 -1 -1 -0 -0 -1 -3 -2 -2 -2 -2 -0 -1 -2 -0 -2 -1 -0 0 1 2 1 0 -0 2
0 -0 -0 0 2 1 -1 -2 -3 -2 -2 -2 -2 -2 -3 -3 -5 -6 -5 -4 -3 -2 -3 -2 -1 0 0 0 1 0 -1 -1 -0 0 -1 -2 -1 -2 -0 2 2 1 2 2 2 2 1
-2 -1 -0 0 1 1 2 1 -3 -3 -3 -4 -5 -5 -5 -5 -5 -6 -4 -2 -2 -3 -2 -5 -2 -1 0 -1 1 2 1 0 -0 1 0 -1 -1 -0 2 3 1 1 -0 2 3 2 2
-5 -4 -3 -2 -2 -2 -1 -0 -1 -3 -4 -7 -7 -7 -8 -7 -6 -7 -7 -6 -5 -1 -5 -9 -2 -1 0 -0 1 2 2 -0 1 1 -3 -1 -0 1 1 2 1 1 1 3 3 3 1
-4 -6 -6 -5 -4 -3 -3 -4 -4 -5 -7 -8 -8 -8 -8 -8 -7 -4 -5 -1 0 -3 -10 -3 -1 -0 -1 -0 1 1 2 1 2 0 1 1 1 0 -0 1 1 1 1 -1 1 1 -1
-5 -4 -4 -4 -4 -6 -6 -6 -5 -5 -6 -6 -7 -7 -7 -6 -5 -4 0 1 -2 -4 -6 -5 -1 -0 -0 -1 -0 1 2 1 1 -4 -3 -0 2 1 1 1 1 0 -4 -3 -2 -0 1
-5 -5 -4 -4 -4 -4 -3 -5 -7 -8 -8 -7 -7 -7 -5 -2 -0 0 1 -5 -6 -2 -1 -4 -1 -1 -0 -1 -1 -0 1 0 1 0 0 -0 -5 2 1 1 1 2 -1 -2 -8 1 -0
-1 -3 -6 -6 -6 -4 -2 -2 -5 -8 -8 -9 -8 -6 -5 -3 -2 0 -1 -2 -3 -2 -2 -0 -0 -1 -0 -1 -1 -2 -0 0 -0 -1 -4 1 -2 -0 1 1 -0 3 2 1 2 0 2
-2 -2 -1 -3 -6 -7 -8 -6 -3 -7 -9 -8 -8 -5 -8 -4 -1 -1 -2 1 0 -2 -1 -1 -3 -2 -1 -2 -2 -2 -2 -1 0 -0 -2 0 -1 -2 1 1 1 1 1 0 -0 -5 -5
1 -1 -2 -1 -0 -2 -6 -8 -11 -5 -10 -9 -7 -3 -7 -6 -2 -6 -1 -1 -1 -1 -1 -1 -2 -1 -2 -2 -2 -2 -2 -2 -1 -0 -0 -0 -0 -4 2 2 2 3 3 2 -1 0 1
3 2 0 -1 -2 -0 1 -1 -6 -12 -6 -10 -7 -6 -6 -6 -3 -1 -1 -1 -1 -1 -1 -0 -1 -1 -2 -2 -2 -2 -2 -3 -1 -1 -1 0 0 1 -1 -1 -1 1 1 1 0 -4 1
3 3 3 2 1 0 -1 1 1 -6 -8 -11 -7 -4 -5 -5 -2 -2 -1 -0 -0 -1 -1 -0 -0 -1 -2 -1 -4 -3 -3 -3 -1 -1 -1 -1 -2 -3 -9 -5 -1 2 1 1 -2 -2 1
3 3 3 2 3 3 3 2 2 -0 -6 -6 -5 -5 -5 -3 -2 -3 -1 -2 -1 -0 -0 -0 -1 -2 -1 -1 -3 -3 -3 -3 -1 -1 -1 -1 -2 -6 -7 -13 -2 1 0 1 1 1 1
3 3 3 2 1 1 2 3 3 3 -3 -5 -6 -3 -4 -5 -4 -3 -4 -2 -2 -2 -1 -1 -2 -1 -1 -3 -3 -2 -3 -3 -2 -1 0 -1 1 -1 -1 -1 -2 -2 -2 -1 1 2 1
4 3 3 2 1 1 -0 -0 1 3 2 -4 -4 -4 -4 -3 -3 -5 -5 -5 -2 -4 -2 -2 -0 -3 -2 -3 -6 -7 -4 -5 -4 0 -0 -1 0 -0 -0 -1 -1 0 -1 -1 -2 -2 0
4 4 4 3 2 1 1 -1 -2 -1 2 -1 -3 -3 -2 -3 -4 -5 -6 -7 -5 -4 -4 -3 -2 -3 -2 -2 -3 -4 -4 -5 -5 -1 0 -0 0 -0 -1 -2 -2 -4 -5 -3 -1 -2 -2
5 5 4 3 3 2 2 1 0 -1 -1 3 2 -2 -2 -2 -2 -4 -5 -4 -5 -4 -4 -4 -3 -3 -4 -4 -3 -3 -2 -2 -2 -3 -2 -1 -1 -1 0 -3 -7 -10 -8 -5 -3 -3 -2
6 6 5 4 4 3 3 3 2 -0 -1 -1 3 1 -2 -1 -2 -2 -2 -3 -3 -4 -4 -3 -4 -3 -3 -2 -2 -4 -9 -6 -2 -2 -2 -2 -1 -1 -1 -0 -4 -8 -6 -5 -4 -8 -6
5 6 6 5 5 4 4 4 3 1 -0 -1 2 3 0 -1 0 -2 -3 -3 -3 -3 -4 -5 -3 -2 -2 -2 -2 -4 -5 -11 -7 -1 -3 -3 -3 -1 -1 0 -2 -10 -10 -8 -9 -8 -13
6 6 6 5 5 5 4 4 2 1 -0 -1 1 3 3 0 1 -1 -1 -2 -4 -4 -3 -3 -3 -1 -1 -1 -1 -1 -3 -5 -4 -3 1 -0 -1 1 -0 1 -1 -4 -7 -6 -6 -8 -14
6 6 6 5 5 5 4 3 1 0 -1 -1 1 3 3 1 2 2 2 1 -1 -2 -1 -2 -1 -1 -1 -0 -1 -2 -1 -2 -4 -5 -0 0 1 1 0 1 2 -4 -5 -6 -8 -9 -9
6 5 5 5 5 4 2 1 1 -1 -2 -1 1 1 3 3 3 2 3 3 3 2 1 -1 -1 -1 -1 -1 -1 -1 -0 -1 -2 -2 -3 -3 -2 -0 -1 -1 -4 -5 -5 -6 -6 -5 -5
Wind_Speed
32 30 25 25 27 29 29 25 38 30 24 24 22 21 17 17 28 33 30 30 29 25 20 15 13 10 7 14 11 10 10 7 7 5 5 6 8 5 5 3 3 4 1 2 1 4 6
33 30 29 27 32 32 29 27 29 31 25 23 18 22 27 21 29 31 32 32 27 20 14 12 10 7 8 13 11 12 10 7 7 6 8 6 9 12 10 5 5 2 2 3 2 4 3
30 29 31 31 31 33 32 24 28 28 32 39 33 36 31 35 39 36 30 24 19 14 13 13 15 13 21 12 11 10 9 10 9 8 10 12 9 4 5 4 4 2 3 3 5 4 3
29 29 31 31 31 30 29 26 26 27 33 43 42 42 40 41 38 30 24 20 17 15 15 12 8 5 11 12 12 7 10 11 10 10 11 12 11 11 6 7 5 5 4 4 3 5 2
28 28 31 32 35 32 27 31 34 34 36 41 46 45 40 32 27 24 21 19 17 14 11 10 10 10 6 10 9 11 9 10 10 10 11 8 5 7 4 4 4 7 1 2 7 3 3
29 30 35 36 37 37 37 34 38 39 34 38 39 35 32 27 22 20 19 19 16 14 13 12 10 10 7 6 9 9 8 7 7 9 6 5 6 4 5 5 2 2 3 3 4 4 3
29 29 31 33 35 35 33 32 33 28 31 32 31 28 25 21 21 20 21 17 8 10 32 15 11 13 10 10 10 7 7 7 5 7 5 7 7 3 1 2 3 4 1 3 4 3 7
29 28 28 29 30 34 34 33 32 30 26 25 22 21 19 18 16 5 1 9 13 13 16 17 17 17 12 7 5 9 6 4 6 4 4 6 4 2 1 1 2 1 1 4 5 4 3
26 23 22 22 23 23 23 23 22 21 18 17 16 16 14 12 15 20 23 22 15 9 7 9 13 10 8 10 7 11 7 4 6 5 5 5 3 2 1 1 2 2 2 1 4 6 2
19 19 19 19 18 15 13 14 18 19 18 16 16 13 11 10 8 10 9 7 4 1 5 9 8 7 8 3 6 10 6 3 5 3 2 4 1 1 1 1 2 3 3 1 5 4 3
16 16 16 15 15 14 11 10 10 11 12 12 12 14 13 12 4 6 3 2 1 0 5 5 4 4 6 5 2 8 9 5 3 2 3 2 4 2 1 1 2 4 1 2 1 1 3
13 13 13 12 10 9 8 7 7 7 7 5 6 10 11 7 6 5 1 1 0 6 2 5 4 6 3 6 3 3 3 6 4 3 3 1 1 2 2 1 2 2 2 4 3 1 2
11 10 10 11 11 8 7 5 3 2 2 5 7 8 9 8 6 4 3 1 5 6 3 3 2 4 2 4 4 4 4 5 2 4 4 5 2 1 2 1 1 6 6 3 5 4 4
12 12 10 9 10 12 11 8 6 5 5 3 4 5 7 7 6 5 3 5 8 1 3 2 1 1 3 3 2 3 2 2 1 4 3 3 6 1 2 1 3 3 4 4 4 2 5
12 12 12 12 11 10 11 13 11 9 5 1 2 2 6 7 7 5 1 6 6 5 2 4 0 3 3 1 0 3 1 3 3 2 3 3 3 1 2 1 3 0 3 2 3 2 3
12 12 12 13 13 13 13 12 13 11 5 2 1 1 7 7 6 3 4 4 1 2 1 0 1 1 0 3 3 4 1 1 1 1 2 3 3 1 2 2 4 1 5 2 3 2 5
15 13 12 13 14 14 14 15 15 14 8 2 1 1 7 9 6 4 4 3 3 3 1 2 2 1 1 1 1 2 1 1 3 2 2 3 3 3 1 4 7 2 1 2 3 4 3
14 15 15 15 15 15 16 16 16 14 11 5 2 2 7 7 4 4 3 4 3 3 2 2 2 1 3 1 2 2 3 4 6 6 3 2 3 4 7 1 1 1 5 5 4 3 2
12 14 15 16 16 18 17 17 17 18 14 6 3 4 6 6 3 2 0 2 1 2 2 3 3 3 2 2 1 3 2 1 8 5 5 4 1 4 5 4 2 4 5 4 4 2 6
11 11 13 15 16 18 19 20 19 17 15 7 2 3 5 7 6 5 3 0 1 1 1 2 2 2 1 1 2 2 2 1 6 4 3 7 3 6 6 3 2 4 4 6 6 3 4
11 12 13 14 16 17 18 19 20 18 14 6 4 3 3 2 5 3 2 2 2 2 2 2 1 4 5 2 1 3 3 4 1 2 3 3 4 3 7 12 9 13 14 10 13 14 8
12 12 13 14 14 16 17 18 18 18 15 8 3 2 2 1 1 1 2 4 4 1 5 3 3 3 5 6 8 6 5 4 6 2 5 1 3 1 5 9 7 12 18 18 19 19 19
14 13 13 13 13 14 15 16 17 17 16 7 7 5 1 1 1 2 2 3 4 3 4 5 6 3 4 11 19 19 15 12 6 7 6 5 3 3 6 4 9 8 7 12 7 5 15
13 13 14 14 14 14 15 15 16 16 15 11 8 5 3 1 1 3 1 3 2 3 3 1 5 4 3 4 11 15 15 15 12 11 12 6 5 2 4 7 2 5 2 8 11 8 19
15 15 14 13 14 14 14 16 15 14 12 11 7 4 3 2 4 5 4 5 6 5 4 5 8 8 7 5 3 6 3 2 0 1 6 6 5 2 3 2 9 6 3 6 6 7 11
17 17 17 15 14 14 14 14 15 13 11 8 6 5 2 3 4 2 1 2 2 1 3 3 4 3 3 2 2 2 4 2 3 2 7 4 1 4 2 3 6 2 2 4 4 6 4
22 20 18 17 15 14 14 14 14 14 12 9 5 4 3 3 6 5 4 2 2 1 2 4 1 2 5 2 2 4 4 2 4 4 5 4 2 12 8 4 10 9 10 4 2 5 3
23 20 17 17 17 15 14 13 13 13 14 12 8 6 7 6 14 21 17 11 7 4 2 1 4 2 2 3 3 4 4 4 2 4 5 7 7 5 4 4 10 12 6 7 3 8 12
20 21 18 17 17 14 13 14 14 14 14 15 13 9 10 15 15 21 27 29 29 25 19 10 6 1 7 1 2 1 3 2 3 3 0 3 6 4 10 7 4 5 11 16 28 30 35
Wind_Direction
38 36 39 39 38 42 51 67 91 96 90 115 130 135 134 143 112 127 138 131 131 137 138 133 140 134 127 82 56 49 57 82 103 118 117 96 74 84 89 81 61 71 42 67 346 309 299
44 38 49 45 52 52 61 69 92 77 92 105 125 119 115 117 124 122 127 128 129 129 127 128 134 132 114 77 62 53 59 73 108 109 88 79 89 93 91 65 63 50 29 339 339 341 323
49 47 60 55 50 61 77 77 78 75 97 76 100 120 110 120 117 120 121 119 121 117 114 115 106 107 89 75 59 58 69 83 93 95 98 94 84 95 94 91 72 36 45 8 22 10 348
50 54 59 53 53 63 65 66 72 84 104 92 105 115 117 118 117 116 117 115 113 102 109 109 108 102 77 72 67 78 79 83 90 96 101 98 97 84 64 108 37 39 48 11 337 359 354
53 57 61 64 62 63 66 77 81 91 87 92 107 108 112 112 113 116 115 113 103 105 106 103 100 99 74 73 74 70 79 86 88 93 100 99 88 76 64 65 28 14 296 334 323 15 315
58 66 75 70 70 71 73 80 83 92 93 101 109 112 116 118 117 112 108 105 99 112 106 93 67 80 62 50 57 56 64 75 92 101 91 59 52 69 34 50 229 332 356 319 265 323 330
69 73 76 77 77 80 78 75 81 89 90 97 105 110 119 119 116 115 111 108 93 72 64 62 64 81 81 76 58 50 58 67 69 54 44 27 64 81 140 62 120 116 136 270 266 295 330
75 78 76 74 82 90 88 83 85 91 92 94 98 104 107 114 112 82 87 98 103 119 72 64 68 70 60 56 60 42 41 51 44 57 2 28 80 212 262 63 82 85 323 296 280 271 304
74 75 76 72 79 89 89 78 75 78 74 74 80 85 85 84 85 92 98 101 110 107 87 38 41 40 32 46 45 17 34 53 71 51 26 115 160 154 99 64 33 266 218 303 241 316 232
62 71 72 74 74 75 77 70 69 80 81 67 67 62 77 80 70 60 74 93 107 89 81 334 1 22 9 34 48 30 34 63 44 122 81 88 158 117 125 216 141 331 192 327 310 27 284
65 51 57 64 68 69 66 61 68 72 68 74 63 51 40 45 45 46 53 39 19 33 67 304 338 359 24 68 83 16 35 53 81 105 105 212 163 179 241 231 127 240 312 263 226 146 13
60 52 45 43 58 58 65 62 55 54 66 58 22 11 13 33 36 44 51 3 38 43 265 341 331 356 44 28 39 11 58 65 90 88 27 134 208 188 241 303 216 351 69 36 50 331 26
39 49 42 29 21 34 30 25 8 345 331 331 335 343 1 10 12 8 340 51 42 93 287 317 2 18 55 0 18 30 33 22 68 59 353 342 238 270 213 342 35 47 51 336 351 8 222
45 31 36 41 22 12 14 14 354 334 320 315 343 0 15 23 29 12 350 51 67 209 206 220 240 122 88 349 3 11 76 50 40 80 95 80 331 189 143 184 181 47 126 141 236 303 282
31 40 33 25 28 23 14 7 5 357 351 349 3 22 24 12 360 353 146 53 184 206 158 156 134 88 360 6 347 40 65 185 208 157 113 58 285 266 187 143 105 11 37 184 91 319 317
36 29 27 27 23 17 16 11 2 2 356 341 343 274 7 5 356 8 85 137 157 207 186 79 86 41 101 318 25 22 325 200 161 147 108 182 328 305 334 124 39 144 165 45 21 11 303
33 31 28 22 18 16 16 11 8 359 355 337 318 222 3 359 1 57 99 198 192 172 130 103 151 115 250 317 343 308 273 290 178 153 101 133 122 283 36 198 180 141 178 94 126 154 186
29 27 25 23 19 14 12 11 13 11 358 337 1 31 1 360 31 45 100 159 145 154 114 99 108 140 194 195 263 252 240 226 183 159 153 179 151 267 224 104 117 214 198 159 130 222 223
27 25 21 19 17 15 12 9 11 11 15 1 21 353 7 12 95 26 236 104 150 127 206 167 190 196 173 216 273 204 250 302 178 158 168 180 335 336 356 7 21 227 198 161 107 80 206
9 16 18 16 16 15 13 9 9 13 15 22 38 22 21 46 68 116 123 144 163 201 168 181 165 117 92 292 221 287 269 247 196 200 194 161 174 197 205 216 138 225 205 196 168 174 203
348 356 6 11 11 13 14 12 8 10 16 28 49 65 46 343 12 45 48 151 146 229 216 219 321 206 176 225 265 237 247 308 200 211 138 133 244 196 267 269 259 259 250 213 210 219 216
334 341 349 2 6 7 9 10 10 10 13 30 55 71 65 69 333 99 20 197 204 256 162 229 205 182 194 208 202 210 185 198 220 117 155 55 269 17 264 268 263 263 247 235 233 237 249
322 328 334 343 355 1 5 10 11 8 15 36 32 21 22 21 70 82 237 191 213 184 215 228 204 166 215 242 254 263 263 258 230 165 184 165 192 15 273 325 300 284 235 194 199 213 222
314 318 324 333 338 345 351 359 5 7 7 28 26 6 346 296 187 214 236 212 256 257 274 274 211 174 277 283 296 275 263 257 248 229 197 156 152 173 279 336 315 241 248 191 195 218 215
306 312 314 316 322 329 339 345 355 359 4 3 11 22 350 291 253 287 245 237 282 274 248 254 257 255 289 306 334 326 329 298 135 224 222 194 151 236 248 259 292 293 166 149 179 281 219
296 302 302 302 307 314 322 329 336 345 351 351 349 349 355 322 246 256 309 230 247 252 303 254 267 277 206 91 68 265 262 266 242 180 35 128 129 184 142 216 254 259 166 144 175 291 194
287 289 283 284 289 294 302 313 321 327 333 336 338 327 290 259 273 243 214 204 239 244 253 280 255 213 200 127 212 205 254 217 260 200 171 118 167 216 220 260 281 255 224 343 76 246 246
276 275 275 278 277 281 291 301 310 316 318 318 310 293 283 258 270 267 256 248 233 224 207 317 318 229 89 192 195 221 206 235 277 177 184 179 161 193 184 213 271 189 92 183 295 341 313
263 267 265 267 270 275 287 295 303 310 307 302 298 295 280 261 270 280 280 274 267 260 259 230 242 212 228 189 243 275 245 248 213 254 96 249 204 193 196 214 302 223 263 284 300 303 311
Height
1492 1485 1479 1477 1471 1466 1460 1456 1454 1456 1455 1458 1460 1462 1463 1468 1472 1477 1485 1490 1496 1501 1505 1507 1509 1510 1512 1513 1522 1521 1520 1520 1521 1522 1523 1523 1523 1526 1532 1535 1537 1539 1541 1540 1541 1541 1540
1497 1490 1485 1480 1477 1473 1469 1465 1465 1465 1464 1464 1465 1467 1471 1473 1478 1484 1491 1495 1501 1506 1508 1509 1511 1512 1513 1517 1524 1523 1522 1523 1523 1523 1523 1524 1525 1528 1531 1537 1539 1541 1541 1541 1541 1540 1539
1501 1496 1491 1487 1483 1480 1476 1474 1472 1470 1471 1468 1466 1471 1477 1482 1486 1493 1498 1502 1506 1508 1510 1512 1513 1514 1514 1524 1525 1524 1525 1523 1524 1524 1524 1526 1528 1529 1534 1538 1541 1541 1541 1540 1541 1541 1540
1506 1502 1497 1494 1490 1488 1486 1483 1479 1477 1478 1478 1479 1481 1485 1491 1495 1500 1504 1506 1508 1511 1513 1514 1515 1515 1522 1527 1527 1527 1527 1526 1527 1527 1526 1529 1531 1531 1536 1540 1542 1546 1546 1549 1543 1542 1543
1512 1508 1504 1502 1498 1496 1493 1491 1490 1489 1488 1488 1490 1493 1497 1500 1502 1505 1508 1509 1511 1513 1516 1516 1517 1517 1528 1530 1530 1529 1529 1529 1529 1529 1530 1532 1533 1536 1540 1545 1552 1555 1552 1552 1549 1545 1545
1519 1515 1511 1509 1506 1505 1502 1501 1500 1500 1501 1500 1500 1503 1505 1509 1511 1512 1512 1513 1516 1518 1518 1519 1520 1522 1532 1534 1532 1532 1532 1531 1531 1532 1534 1534 1535 1543 1550 1556 1562 1555 1558 1556 1556 1547 1546
1525 1524 1520 1517 1515 1513 1512 1511 1509 1509 1509 1510 1512 1513 1514 1515 1516 1516 1516 1517 1522 1523 1523 1532 1533 1532 1535 1536 1536 1535 1534 1533 1534 1535 1540 1539 1550 1563 1556 1554 1555 1558 1559 1559 1554 1549 1548
1532 1530 1528 1526 1524 1521 1521 1521 1521 1520 1519 1520 1519 1520 1520 1521 1521 1520 1520 1520 1524 1530 1535 1537 1536 1537 1538 1537 1537 1537 1537 1538 1537 1545 1543 1548 1558 1556 1555 1555 1556 1557 1559 1557 1551 1549 1550
1539 1537 1534 1533 1531 1529 1529 1528 1527 1527 1527 1527 1526 1526 1526 1525 1525 1524 1524 1525 1528 1530 1533 1540 1540 1540 1541 1541 1541 1540 1540 1541 1543 1548 1549 1554 1556 1555 1555 1555 1555 1556 1556 1555 1559 1551 1547
1545 1542 1541 1538 1537 1537 1535 1533 1533 1532 1531 1532 1532 1531 1530 1530 1531 1529 1530 1530 1531 1532 1546 1549 1544 1545 1545 1543 1545 1544 1543 1545 1546 1550 1551 1554 1554 1554 1555 1554 1555 1554 1553 1553 1555 1560 1565
1549 1547 1545 1543 1541 1541 1540 1540 1538 1538 1537 1536 1536 1535 1533 1533 1532 1531 1533 1531 1532 1532 1576 1552 1548 1547 1546 1546 1548 1547 1545 1544 1548 1550 1553 1554 1554 1554 1553 1551 1552 1554 1552 1554 1554 1560 1566
1552 1550 1549 1547 1545 1544 1542 1542 1541 1541 1540 1539 1538 1537 1535 1534 1533 1533 1531 1531 1533 1552 1579 1557 1550 1548 1547 1547 1548 1547 1546 1546 1549 1550 1551 1553 1552 1553 1552 1552 1552 1552 1554 1559 1560 1561 1575
1554 1553 1551 1549 1548 1547 1545 1543 1542 1542 1541 1540 1539 1538 1536 1534 1533 1532 1532 1532 1550 1569 1560 1556 1554 1550 1551 1551 1549 1548 1550 1552 1556 1564 1573 1556 1553 1552 1552 1553 1552 1555 1569 1582 1570 1573 1556
1557 1555 1553 1551 1549 1548 1546 1544 1542 1541 1540 1539 1538 1538 1536 1535 1534 1533 1533 1535 1564 1557 1556 1553 1553 1552 1553 1552 1551 1551 1552 1557 1554 1557 1571 1572 1565 1552 1552 1553 1558 1559 1565 1582 1569 1578 1570
1559 1558 1556 1553 1551 1549 1548 1545 1542 1540 1539 1538 1537 1537 1536 1535 1534 1532 1534 1558 1560 1555 1553 1553 1552 1552 1553 1551 1552 1551 1552 1555 1554 1553 1560 1566 1556 1552 1552 1552 1554 1557 1567 1562 1572 1576 1574
1561 1559 1557 1555 1553 1550 1548 1546 1544 1541 1539 1538 1537 1537 1536 1534 1533 1532 1536 1552 1552 1552 1552 1552 1552 1554 1554 1555 1554 1553 1552 1551 1551 1552 1553 1558 1566 1552 1551 1551 1554 1553 1558 1566 1575 1570 1565
1563 1561 1559 1557 1555 1552 1549 1546 1544 1542 1540 1538 1538 1536 1535 1533 1532 1532 1551 1553 1550 1550 1550 1551 1553 1554 1555 1555 1555 1556 1554 1551 1551 1553 1553 1556 1562 1556 1552 1552 1553 1557 1558 1562 1567 1570 1572
1566 1563 1561 1558 1556 1553 1551 1547 1544 1542 1540 1539 1537 1538 1536 1533 1534 1541 1549 1547 1547 1549 1550 1551 1551 1552 1554 1555 1556 1556 1555 1552 1549 1551 1554 1555 1563 1569 1552 1549 1549 1549 1551 1555 1564 1560 1569
1568 1566 1564 1561 1558 1555 1552 1549 1545 1542 1540 1539 1539 1539 1538 1535 1548 1549 1547 1548 1548 1549 1550 1551 1552 1552 1553 1554 1555 1553 1551 1549 1549 1550 1554 1555 1562 1575 1553 1553 1549 1549 1548 1549 1556 1560 1561
1568 1567 1565 1563 1561 1558 1555 1551 1548 1544 1542 1540 1540 1544 1541 1539 1543 1545 1548 1549 1549 1549 1549 1550 1551 1552 1553 1554 1553 1553 1551 1548 1548 1549 1550 1551 1560 1558 1563 1541 1545 1546 1544 1547 1547 1562 1547
1569 1567 1566 1564 1562 1560 1557 1554 1551 1547 1544 1543 1542 1547 1548 1550 1548 1548 1548 1549 1549 1550 1550 1550 1551 1551 1552 1555 1554 1556 1552 1550 1549 1550 1551 1553 1557 1559 1552 1547 1545 1541 1539 1540 1543 1532 1533
1568 1567 1566 1564 1563 1560 1558 1556 1553 1550 1546 1546 1545 1547 1548 1549 1549 1548 1549 1550 1550 1549 1550 1550 1551 1549 1552 1554 1550 1550 1549 1549 1547 1550 1551 1554 1555 1554 1554 1541 1542 1536 1526 1527 1527 1524 1520
1567 1567 1566 1564 1563 1561 1559 1556 1554 1552 1549 1547 1548 1548 1547 1549 1548 1550 1549 1548 1547 1547 1547 1546 1547 1549 1550 1546 1543 1542 1543 1543 1542 1545 1550 1553 1555 1556 1549 1541 1538 1525 1506 1510 1513 1510 1506
1565 1565 1564 1564 1563 1561 1559 1557 1555 1553 1551 1550 1550 1549 1548 1549 1549 1548 1547 1547 1546 1547 1547 1545 1545 1546 1544 1542 1541 1539 1537 1537 1539 1541 1542 1550 1553 1554 1552 1544 1535 1490 1492 1494 1496 1493 1491
1563 1563 1563 1562 1561 1560 1559 1557 1555 1554 1552 1551 1549 1550 1549 1549 1548 1545 1545 1546 1544 1544 1544 1543 1542 1543 1542 1542 1543 1540 1537 1535 1537 1538 1540 1541 1545 1547 1553 1556 1518 1480 1489 1493 1495 1480 1472
1560 1560 1559 1559 1558 1558 1557 1555 1553 1553 1552 1550 1549 1548 1548 1549 1546 1545 1544 1544 1544 1543 1542 1540 1540 1540 1541 1542 1545 1541 1536 1527 1530 1538 1538 1541 1543 1545 1555 1545 1520 1482 1484 1485 1487 1487 1466
1555 1556 1555 1554 1554 1554 1554 1553 1552 1551 1550 1549 1548 1548 1547 1546 1542 1542 1543 1543 1543 1543 1542 1539 1539 1539 1540 1543 1545 1546 1540 1534 1530 1530 1540 1544 1546 1539 1542 1545 1515 1485 1483 1484 1490 1481 1467
1549 1550 1550 1550 1550 1550 1550 1550 1549 1548 1547 1546 1546 1546 1547 1543 1539 1537 1538 1540 1541 1542 1542 1542 1541 1538 1541 1543 1542 1538 1541 1530 1528 1523 1527 1527 1535 1538 1539 1540 1524 1480 1482 1484 1474 1469 1468
1543 1544 1545 1545 1545 1545 1546 1547 1546 1545 1544 1544 1543 1543 1543 1541 1537 1533 1533 1534 1534 1535 1538 1538 1536 1535 1534 1536 1537 1534 1532 1530 1522 1520 1516 1520 1509 1515 1512 1501 1482 1481 1476 1474 1472 1469 1467